UAE238 KBOS-OMDB

Flight info

Callsign UAE238
Flight time N/A
Altitude 31000
Route FRILL DCT TUSKY N321A ELSIR/M084F330 DCT 50N050W 52N040W 54N030W 55N020W DCT RESNO DCT NETKI/N0485F330 DCT BOFUM/N0482F350 Q37 MALUD UL975 WAL M16 DOLAS L603 LAMSO DCT EVELI DCT PAM DCT HMM DCT NOMKA DCT AKOSI DCT DEXIT DCT PESAT DCT TEGRI DCT ARTAT UP975 ASMOB/N0489F370 UP975 EZS UL614 OTKEP UM688 RATVO DCT SISIN UM688 SIDAD P975 SESRU M677 OBNET/N0501F350 M677 VUTEB
Aircraft B77W/H-SDE1E2E3FGHIJ2J3J4J5M1RWXY/LB1D1

Departure

Time 2026-05-03 21:31
Airport Boston Logan International Airport (KBOS)

Arrival

Time N/A
Airport Dubai International Airport (OMDB)
Time Latitude Longitude Altitude Speed Heading
2026-05-03 21:14 42.37203 -71.02178 30 ft 0 kts 43°
2026-05-03 21:16 42.37209 -71.02171 30 ft 2 kts 43°
2026-05-03 21:17 42.37224 -71.02151 30 ft 4 kts 43°
2026-05-03 21:17 42.37233 -71.02127 30 ft 5 kts 76°
2026-05-03 21:17 42.37234 -71.02050 30 ft 7 kts 94°
2026-05-03 21:17 42.37230 -71.01973 30 ft 9 kts 84°
2026-05-03 21:18 42.37271 -71.01907 30 ft 10 kts 40°
2026-05-03 21:18 42.37297 -71.01828 30 ft 11 kts 119°
2026-05-03 21:18 42.37240 -71.01750 30 ft 12 kts 136°
2026-05-03 21:18 42.37176 -71.01666 30 ft 14 kts 135°
2026-05-03 21:19 42.37104 -71.01568 30 ft 15 kts 135°
2026-05-03 21:19 42.37024 -71.01461 30 ft 17 kts 135°
2026-05-03 21:19 42.36949 -71.01359 30 ft 15 kts 135°
2026-05-03 21:19 42.36888 -71.01278 30 ft 0 kts 136°
2026-05-03 21:20 42.36881 -71.01269 30 ft 2 kts 136°
2026-05-03 21:20 42.36865 -71.01248 30 ft 4 kts 136°
2026-05-03 21:20 42.36840 -71.01216 30 ft 6 kts 136°
2026-05-03 21:20 42.36809 -71.01174 30 ft 7 kts 136°
2026-05-03 21:21 42.36764 -71.01145 30 ft 8 kts 172°
2026-05-03 21:21 42.36708 -71.01154 30 ft 9 kts 197°
2026-05-03 21:21 42.36650 -71.01182 30 ft 9 kts 199°
2026-05-03 21:21 42.36586 -71.01214 30 ft 10 kts 200°
2026-05-03 21:22 42.36519 -71.01246 30 ft 11 kts 199°
2026-05-03 21:22 42.36449 -71.01280 30 ft 11 kts 200°
2026-05-03 21:22 42.36380 -71.01314 30 ft 11 kts 200°
2026-05-03 21:22 42.36322 -71.01310 30 ft 8 kts 128°
2026-05-03 21:23 42.36291 -71.01235 30 ft 10 kts 118°
2026-05-03 21:23 42.36260 -71.01149 30 ft 11 kts 115°
2026-05-03 21:23 42.36229 -71.01053 30 ft 12 kts 114°
2026-05-03 21:23 42.36194 -71.00948 30 ft 13 kts 114°
2026-05-03 21:24 42.36158 -71.00837 30 ft 13 kts 114°
2026-05-03 21:24 42.36119 -71.00719 31 ft 14 kts 112°
2026-05-03 21:24 42.36089 -71.00592 30 ft 15 kts 107°
2026-05-03 21:24 42.36054 -71.00456 30 ft 15 kts 109°
2026-05-03 21:25 42.36020 -71.00320 30 ft 15 kts 109°
2026-05-03 21:25 42.36004 -71.00258 30 ft 7 kts 109°
2026-05-03 21:25 42.35988 -71.00194 30 ft 8 kts 108°
2026-05-03 21:25 42.35969 -71.00120 30 ft 9 kts 115°
2026-05-03 21:26 42.35930 -71.00050 30 ft 10 kts 135°
2026-05-03 21:26 42.35880 -70.99982 30 ft 11 kts 135°
2026-05-03 21:26 42.35825 -70.99907 30 ft 12 kts 135°
2026-05-03 21:26 42.35764 -70.99826 30 ft 13 kts 135°
2026-05-03 21:27 42.35698 -70.99738 30 ft 14 kts 135°
2026-05-03 21:27 42.35627 -70.99644 30 ft 15 kts 135°
2026-05-03 21:27 42.35551 -70.99543 30 ft 16 kts 135°
2026-05-03 21:27 42.35491 -70.99420 30 ft 16 kts 95°
2026-05-03 21:28 42.35514 -70.99282 30 ft 8 kts 56°
2026-05-03 21:28 42.35558 -70.99290 30 ft 7 kts 315°
2026-05-03 21:28 42.35562 -70.99295 30 ft 0 kts 315°
2026-05-03 21:30 42.35596 -70.99340 30 ft 18 kts 315°
2026-05-03 21:30 42.35884 -70.99726 30 ft 102 kts 315°
2026-05-03 21:30 42.36592 -71.00675 36 ft 183 kts 314°
2026-05-03 21:30 42.37595 -71.02018 578 ft 218 kts 315°
2026-05-03 21:31 42.38712 -71.03439 2015 ft 209 kts 314°
2026-05-03 21:31 42.39758 -71.04779 3332 ft 202 kts 316°
2026-05-03 21:31 42.40768 -71.06056 4098 ft 195 kts 316°
2026-05-03 21:31 42.41751 -71.07280 4737 ft 192 kts 320°
2026-05-03 21:32 42.43005 -71.07948 4956 ft 206 kts 357°
2026-05-03 21:32 42.44471 -71.07432 5102 ft 234 kts 24°
2026-05-03 21:32 42.45784 -71.05948 5308 ft 259 kts 44°
2026-05-03 21:32 42.47001 -71.04088 5630 ft 270 kts 47°
2026-05-03 21:33 42.47961 -71.01820 6133 ft 284 kts 62°
2026-05-03 21:33 42.48704 -70.99335 6845 ft 286 kts 64°
2026-05-03 21:33 42.49401 -70.96804 7575 ft 287 kts 65°
2026-05-03 21:33 42.50097 -70.94254 8255 ft 290 kts 65°
2026-05-03 21:34 42.50806 -70.91684 8895 ft 293 kts 64°
2026-05-03 21:34 42.51520 -70.89127 9574 ft 294 kts 65°
2026-05-03 21:34 42.52254 -70.86523 10165 ft 297 kts 64°
2026-05-03 21:34 42.53017 -70.83850 10459 ft 314 kts 64°
2026-05-03 21:35 42.53835 -70.81015 10621 ft 333 kts 64°
2026-05-03 21:35 42.54707 -70.77997 10786 ft 353 kts 65°
2026-05-03 21:35 42.55629 -70.74812 10998 ft 372 kts 65°
2026-05-03 21:35 42.56586 -70.71498 11485 ft 382 kts 65°
2026-05-03 21:36 42.57564 -70.68103 12077 ft 390 kts 65°